Regional Weather Roundup
Issued by NWS

Home | Current Version | Previous Version | Graphics & Text | Print | Product List | Glossary On
Versions: 1 2 3 4 5 6 7 8 9 10 11 12 13 14 15 16 17 18 19 20 21 22 23 24 25 26 27 28 29 30 31 32 33 34 35 36 37 38 39 40 41 42 43 44 45 46 47 48 49 50
000
ASUS43 KLMK 210102
RWRKY
KENTUCKY REGIONAL WEATHER ROUNDUP
NATIONAL WEATHER SERVICE LOUISVILLE KY
900 PM EDT SUN AUG 20 2017

NOTE "FAIR" INDICATES FEW OR NO CLOUDS BELOW 12,000 FEET
WITH NO SIGNIFICANT WEATHER AND/OR OBSTRUCTIONS TO VISIBILITY.

KYZ001>023-026-027-061>063-070>075-210200-
WESTERN AND SOUTH CENTRAL KENTUCKY

CITY           SKY/WX    TMP DP  RH WIND       PRES   REMARKS
PADUCAH        PTCLDY    82  72  71 SW6       30.03R
HENDERSON      CLEAR     79  71  76 S3        30.04R
OWENSBORO      CLOUDY    82  71  69 SE6       30.04S
HOPKINSVILLE   MOCLDY    83  70  64 SE3       30.05R
BOWLING GREEN  MOCLDY    82  72  71 CALM      30.07R
GLASGOW        CLOUDY    76  69  76 CALM      30.09S
$$

KYZ024-025-028>034-038-045-046-053-210200-
NORTH CENTRAL KENTUCKY

CITY           SKY/WX    TMP DP  RH WIND       PRES   REMARKS
LOUISVILLE/SDF MOCLDY    87  67  51 S6        30.06S HX  90
LOUISVILLE/LOU PTCLDY    85  68  56 S5        30.07S
FORT KNOX      CLOUDY    76  69  79 CALM      30.07R
$$

KYZ035>037-039>044-047>052-055>060-089>105-210200-
NORTHEAST KENTUCKY

CITY           SKY/WX    TMP DP  RH WIND       PRES   REMARKS
LEXINGTON      CLEAR     81  67  62 S6        30.12R
COVINGTON      CLOUDY    78  70  76 S3        30.09S
FRANKFORT      CLOUDY    79  68  69 CALM      30.09R
$$

KYZ054-064>069-076>088-106>120-210200-
SOUTHEAST KENTUCKY

CITY           SKY/WX    TMP DP  RH WIND       PRES   REMARKS
JACKSON        CLEAR     79  60  52 CALM      30.16R
LONDON         CLEAR     76  68  76 CALM      30.15R
SOMERSET       NOT AVBL
MIDDLESBORO    PTCLDY    75  71  86 W3        30.16R
MONTICELLO     PTCLDY    70  68  93 CALM      30.15R
$$





USA.gov is the U.S. government's official web portal to all federal, state and local government web resources and services.